Погода в Верхней Ланной

Украина / Полтавская область     49°24′30″N   35°17′20″E
темп.,
°C
ветер,
м/с
пор.,
м/с
влажн.,
%
обл.,
%
осадки,
мм/ч
давл.,
гПа
погр.,
м
17 мая, пн
пн1700:00+17всв41093100 0.8 1006210
03:00+16всв5128999 0.8 1004238
06:00+15юв5138798 0.3 1003325
09:00+20вюв710666 1.3 1002429
12:00+22юв6966100 1.2 10031100
15:00+25юв696030 1.4 10021666
18:00+23ю69695 0.0 1002951
21:00+17ю4889100 0.3 1005152
18 мая, вт
вт1800:00+15ююв3595100 2.1 1005111
03:00+15ююз3394100 2.2 100559
06:00+14ю3593100 0.0 1005134
09:00+17ю4581100 0.9 1006563
12:00+19ю566888 1.0 10051279
15:00+21ю786092 1.9 10041705
18:00+18ю697844 1.4 1004873
21:00+15ююв4118999 1.5 1004375
19 мая, ср
ср1900:00+13ююв41096100 0.0 1004257
03:00+12ююв389857 0.2 1004226
06:00+13ююв3797100 0.4 1004270
09:00+14юв3586100 5.0 1005442
12:00+18ююв566894 0.6 10051118
15:00+19ю465858 2.1 10041444
18:00+17ююз4771100 0.3 1005302
21:00+12ююз229087 0.7 100627
20 мая, чт
чт2000:00+11ююз34935 0.3 100662
03:00+10ююз36976 0.3 1007127
06:00+11зюз4898100 0.4 1007375
09:00+12юз5893100 0.5 1009537
12:00+13зюз688498 0.1 1010777
15:00+20з795615 0.3 10101758
18:00+18з4767100 0.0 1011307
21:00+14з368199 0.0 1013149
21 мая, пт
пт2100:00+14с2382100 0.0 101367
03:00+13св118998 0.4 101323
06:00+12всв3691100 0.1 1014144
09:00+16в5678100 0.1 1014424
12:00+20в5661100 0.0 1013936
15:00+21в3668100 0.0 1012569
18:00+22в4768100 0.0 1011310
21:00+18в4881100 0.0 1012148